Voltar ao catálogo

STARLINK-35432

AtivoComunicaçõesVLEO
NORAD 66021·PAYLOAD·🇺🇸 United States

Lançado Oct 16, 2025 de Cape Canaveral Space Force Station

Loading…

Próximas Passagens (próximas 24 horas)

TLE

AtualizadoSource: CelesTrak SupGP

Época: Sep 14, 2026, 21:37 UTC

1 66021C 25232S   26257.90118056  .00017846  00000+0  52756-3 0  2571
2 66021  53.1565 303.5522 0001177  87.1545 348.3947 15.34363980    19

Acompanhe STARLINK-35432 em tempo real com AllMySat

Download on the App Store